Location: *
(58.4167°N, 22.5000°E)
Time: 15:50:36
(UTC+00:00)

Cosmos 1980 - Pass Details

Date: 22 September 2019
Orbit: 841 x 846 km, 71.0° (Epoch: 16 October)

Event Time Altitude Azimuth Distance (km) Brightness Sun altitude
Rises 17:06:42 0° 322° (NW) 3,412 7.7 -5.5°
Reaches altitude 10° 17:09:10 10° 320° (NW) 2,473 7.0 -5.8°
Maximum altitude 17:14:47 64° 240° (WSW) 931 4.2 -6.6°
Drops below altitude 10° 17:20:21 10° 160° (SSE) 2,457 5.8 -7.3°
Sets 17:22:47 0° 157° (SSE) 3,388 6.5 -7.6°
